Year,Month,Day,Hour,Minute,Value (Times are PST for temperature in C)
2021,08,12,00,00,19.70
2021,08,12,00,01,19.70
2021,08,12,00,02,19.70
2021,08,12,00,03,19.70
2021,08,12,00,04,19.70
2021,08,12,00,05,19.70
2021,08,12,00,06,19.70
2021,08,12,00,07,19.80
2021,08,12,00,08,19.80
2021,08,12,00,09,19.80
2021,08,12,00,10,19.70
2021,08,12,00,11,19.70
2021,08,12,00,12,19.70
2021,08,12,00,13,19.70
2021,08,12,00,14,19.70
2021,08,12,00,15,19.60
2021,08,12,00,16,19.60
2021,08,12,00,17,19.60
2021,08,12,00,18,19.60
2021,08,12,00,19,19.60
2021,08,12,00,20,19.60
2021,08,12,00,21,19.60
2021,08,12,00,22,19.60
2021,08,12,00,23,19.60
2021,08,12,00,24,19.60
2021,08,12,00,25,19.60
2021,08,12,00,26,19.60
2021,08,12,00,27,19.50
2021,08,12,00,28,19.50
2021,08,12,00,29,19.50
2021,08,12,00,30,19.50
2021,08,12,00,31,19.50
2021,08,12,00,32,19.60
2021,08,12,00,33,19.60
2021,08,12,00,34,19.60
2021,08,12,00,35,19.60
2021,08,12,00,36,19.60
2021,08,12,00,37,19.70
2021,08,12,00,38,19.60
2021,08,12,00,39,19.60
2021,08,12,00,40,19.70
2021,08,12,00,41,19.70
2021,08,12,00,42,19.80
2021,08,12,00,43,19.80
2021,08,12,00,44,19.80
2021,08,12,00,45,19.80
2021,08,12,00,46,19.80
2021,08,12,00,47,19.80
2021,08,12,00,48,19.80
2021,08,12,00,49,19.80
2021,08,12,00,50,19.90
2021,08,12,00,51,20.00
2021,08,12,00,52,20.00
2021,08,12,00,53,20.10
2021,08,12,00,54,20.10
2021,08,12,00,55,20.20
2021,08,12,00,56,20.20
2021,08,12,00,57,20.20
2021,08,12,00,58,20.20
2021,08,12,00,59,20.20
2021,08,12,01,00,20.20
2021,08,12,01,01,20.20
2021,08,12,01,02,20.20
2021,08,12,01,03,20.20
2021,08,12,01,04,20.20
2021,08,12,01,05,20.20
2021,08,12,01,06,20.20
2021,08,12,01,07,20.20
2021,08,12,01,08,20.20
2021,08,12,01,09,20.20
2021,08,12,01,10,20.20
2021,08,12,01,11,20.10
2021,08,12,01,12,20.10
2021,08,12,01,13,20.10
2021,08,12,01,14,20.10
2021,08,12,01,15,20.10
2021,08,12,01,16,20.20
2021,08,12,01,17,20.20
2021,08,12,01,18,20.20
2021,08,12,01,19,20.20
2021,08,12,01,20,20.30
2021,08,12,01,21,20.30
2021,08,12,01,22,20.40
2021,08,12,01,23,20.50
2021,08,12,01,24,20.50
2021,08,12,01,25,20.60
2021,08,12,01,26,20.60
2021,08,12,01,27,20.70
2021,08,12,01,28,20.80
2021,08,12,01,29,20.90
2021,08,12,01,30,21.00
2021,08,12,01,31,21.00
2021,08,12,01,32,21.10
2021,08,12,01,33,21.10
2021,08,12,01,34,21.10
2021,08,12,01,35,21.20
2021,08,12,01,36,21.20
2021,08,12,01,37,21.30
2021,08,12,01,38,21.30
2021,08,12,01,39,21.30
2021,08,12,01,40,21.30
2021,08,12,01,41,21.30
2021,08,12,01,42,21.30
2021,08,12,01,43,21.20
2021,08,12,01,44,21.20
2021,08,12,01,45,21.20
2021,08,12,01,46,21.20
2021,08,12,01,47,21.20
2021,08,12,01,48,21.30
2021,08,12,01,49,21.30
2021,08,12,01,50,21.30
2021,08,12,01,51,21.30
2021,08,12,01,52,21.30
2021,08,12,01,53,21.30
2021,08,12,01,54,21.30
2021,08,12,01,55,21.30
2021,08,12,01,56,21.30
2021,08,12,01,57,21.30
2021,08,12,01,58,21.30
2021,08,12,01,59,21.30
2021,08,12,02,00,21.30
2021,08,12,02,01,21.30
2021,08,12,02,02,21.30
2021,08,12,02,03,21.30
2021,08,12,02,04,21.40
2021,08,12,02,05,21.40
2021,08,12,02,06,21.40
2021,08,12,02,07,21.40
2021,08,12,02,08,21.30
2021,08,12,02,09,21.30
2021,08,12,02,10,21.20
2021,08,12,02,11,21.20
2021,08,12,02,12,21.20
2021,08,12,02,13,21.20
2021,08,12,02,14,21.20
2021,08,12,02,15,21.30
2021,08,12,02,16,21.30
2021,08,12,02,17,21.30
2021,08,12,02,18,21.20
2021,08,12,02,19,21.20
2021,08,12,02,20,21.10
2021,08,12,02,21,21.10
2021,08,12,02,22,21.00
2021,08,12,02,23,21.00
2021,08,12,02,24,21.00
2021,08,12,02,25,20.90
2021,08,12,02,26,20.90
2021,08,12,02,27,20.90
2021,08,12,02,28,20.90
2021,08,12,02,29,21.00
2021,08,12,02,30,21.00
2021,08,12,02,31,21.10
2021,08,12,02,32,21.20
2021,08,12,02,33,21.20
2021,08,12,02,34,21.20
2021,08,12,02,35,21.20
2021,08,12,02,36,21.20
2021,08,12,02,37,21.30
2021,08,12,02,38,21.30
2021,08,12,02,39,21.30
2021,08,12,02,40,21.30
2021,08,12,02,41,21.30
2021,08,12,02,42,21.30
2021,08,12,02,43,21.40
2021,08,12,02,44,21.40
2021,08,12,02,45,21.40
2021,08,12,02,46,21.40
2021,08,12,02,47,21.40
2021,08,12,02,48,21.30
2021,08,12,02,49,21.30
2021,08,12,02,50,21.30
2021,08,12,02,51,21.30
2021,08,12,02,52,21.30
2021,08,12,02,53,21.30
2021,08,12,02,54,21.20
2021,08,12,02,55,21.20
2021,08,12,02,56,21.20
2021,08,12,02,57,21.20
2021,08,12,02,58,21.20
2021,08,12,02,59,21.20
2021,08,12,03,00,21.20
2021,08,12,03,01,21.20
2021,08,12,03,02,21.20
2021,08,12,03,03,21.20
2021,08,12,03,04,21.20
2021,08,12,03,05,21.20
2021,08,12,03,06,21.10
2021,08,12,03,07,21.10
2021,08,12,03,08,21.10
2021,08,12,03,09,21.10
2021,08,12,03,10,21.00
2021,08,12,03,11,21.00
2021,08,12,03,12,21.00
2021,08,12,03,13,20.90
2021,08,12,03,14,20.90
2021,08,12,03,15,20.80
2021,08,12,03,16,20.80
2021,08,12,03,17,20.80
2021,08,12,03,18,20.80
2021,08,12,03,19,20.80
2021,08,12,03,20,20.80
2021,08,12,03,21,20.80
2021,08,12,03,22,20.80
2021,08,12,03,23,20.80
2021,08,12,03,24,20.80
2021,08,12,03,25,20.80
2021,08,12,03,26,20.80
2021,08,12,03,27,20.80
2021,08,12,03,28,20.90
2021,08,12,03,29,20.90
2021,08,12,03,30,20.90
2021,08,12,03,31,20.90
2021,08,12,03,32,20.90
2021,08,12,03,33,20.90
2021,08,12,03,34,20.80
2021,08,12,03,35,20.80
2021,08,12,03,36,20.70
2021,08,12,03,37,20.70
2021,08,12,03,38,20.70
2021,08,12,03,39,20.70
2021,08,12,03,40,20.80
2021,08,12,03,41,20.80
2021,08,12,03,42,20.80
2021,08,12,03,43,20.80
2021,08,12,03,44,20.80
2021,08,12,03,45,20.70
2021,08,12,03,46,20.70
2021,08,12,03,47,20.60
2021,08,12,03,48,20.50
2021,08,12,03,49,20.50
2021,08,12,03,50,20.50
2021,08,12,03,51,20.40
2021,08,12,03,52,20.40
2021,08,12,03,53,20.50
2021,08,12,03,54,20.50
2021,08,12,03,55,20.50
2021,08,12,03,56,20.60
2021,08,12,03,57,20.60
2021,08,12,03,58,20.60
2021,08,12,03,59,20.70
2021,08,12,04,00,20.70
2021,08,12,04,01,20.70
2021,08,12,04,02,20.80
2021,08,12,04,03,20.80
2021,08,12,04,04,20.80
2021,08,12,04,05,20.80
2021,08,12,04,06,20.80
2021,08,12,04,07,20.80
2021,08,12,04,08,20.80
2021,08,12,04,09,20.80
2021,08,12,04,10,20.80
2021,08,12,04,11,20.70
2021,08,12,04,12,20.70
2021,08,12,04,13,20.70
2021,08,12,04,14,20.70
2021,08,12,04,15,20.70
2021,08,12,04,16,20.70
2021,08,12,04,17,20.70
2021,08,12,04,18,20.70
2021,08,12,04,19,20.70
2021,08,12,04,20,20.70
2021,08,12,04,21,20.70
2021,08,12,04,22,20.80
2021,08,12,04,23,20.80
2021,08,12,04,24,20.80
2021,08,12,04,25,20.80
2021,08,12,04,26,20.80
2021,08,12,04,27,20.80
2021,08,12,04,28,20.80
2021,08,12,04,29,20.70
2021,08,12,04,30,20.70
2021,08,12,04,31,20.70
2021,08,12,04,32,20.60
2021,08,12,04,33,20.60
2021,08,12,04,34,20.60
2021,08,12,04,35,20.60
2021,08,12,04,36,20.60
2021,08,12,04,37,20.60
2021,08,12,04,38,20.60
2021,08,12,04,39,20.60
2021,08,12,04,40,20.60
2021,08,12,04,41,20.60
2021,08,12,04,42,20.60
2021,08,12,04,43,20.60
2021,08,12,04,44,20.60
2021,08,12,04,45,20.70
2021,08,12,04,46,20.70
2021,08,12,04,47,20.60
2021,08,12,04,48,20.60
2021,08,12,04,49,20.60
2021,08,12,04,50,20.60
2021,08,12,04,51,20.60
2021,08,12,04,52,20.60
2021,08,12,04,53,20.60
2021,08,12,04,54,20.60
2021,08,12,04,55,20.50
2021,08,12,04,56,20.50
2021,08,12,04,57,20.50
2021,08,12,04,58,20.50
2021,08,12,04,59,20.50
2021,08,12,05,00,20.40
2021,08,12,05,01,20.40
2021,08,12,05,02,20.40
2021,08,12,05,03,20.40
2021,08,12,05,04,20.40
2021,08,12,05,05,20.40
2021,08,12,05,06,20.40
2021,08,12,05,07,20.40
2021,08,12,05,08,20.40
2021,08,12,05,09,20.40
2021,08,12,05,10,20.30
2021,08,12,05,11,20.40
2021,08,12,05,12,20.40
2021,08,12,05,13,20.50
2021,08,12,05,14,20.50
2021,08,12,05,15,20.50
2021,08,12,05,16,20.50
2021,08,12,05,17,20.50
2021,08,12,05,18,20.50
2021,08,12,05,19,20.50
2021,08,12,05,20,20.60
2021,08,12,05,21,20.60
2021,08,12,05,22,20.60
2021,08,12,05,23,20.60
2021,08,12,05,24,20.50
2021,08,12,05,25,20.50
2021,08,12,05,26,20.40
2021,08,12,05,27,20.40
2021,08,12,05,28,20.40
2021,08,12,05,29,20.30
2021,08,12,05,30,20.30
2021,08,12,05,31,20.30
2021,08,12,05,32,20.20
2021,08,12,05,33,20.20
2021,08,12,05,34,20.20
2021,08,12,05,35,20.20
2021,08,12,05,36,20.20
2021,08,12,05,37,20.20
2021,08,12,05,38,20.20
2021,08,12,05,39,20.20
2021,08,12,05,40,20.10
2021,08,12,05,41,20.10
2021,08,12,05,42,20.10
2021,08,12,05,43,20.10
2021,08,12,05,44,20.10
2021,08,12,05,45,20.10
2021,08,12,05,46,20.10
2021,08,12,05,47,20.00
2021,08,12,05,48,20.00
2021,08,12,05,49,19.90
2021,08,12,05,50,19.90
2021,08,12,05,51,20.00
2021,08,12,05,52,20.10
2021,08,12,05,53,20.20
2021,08,12,05,54,20.30
2021,08,12,05,55,20.30
2021,08,12,05,56,20.30
2021,08,12,05,57,20.40
2021,08,12,05,58,20.40
2021,08,12,05,59,20.40
2021,08,12,06,00,20.40
2021,08,12,06,01,20.40
2021,08,12,06,02,20.30
2021,08,12,06,03,20.30
2021,08,12,06,04,20.30
2021,08,12,06,05,20.30
2021,08,12,06,06,20.30
2021,08,12,06,07,20.30
2021,08,12,06,08,20.30
2021,08,12,06,09,20.30
2021,08,12,06,10,20.30
2021,08,12,06,11,20.30
2021,08,12,06,12,20.30
2021,08,12,06,13,20.30
2021,08,12,06,14,20.30
2021,08,12,06,15,20.30
2021,08,12,06,16,20.30
2021,08,12,06,17,20.30
2021,08,12,06,18,20.30
2021,08,12,06,19,20.30
2021,08,12,06,20,20.30
2021,08,12,06,21,20.30
2021,08,12,06,22,20.20
2021,08,12,06,23,20.30
2021,08,12,06,24,20.30
2021,08,12,06,25,20.30
2021,08,12,06,26,20.30
2021,08,12,06,27,20.30
2021,08,12,06,28,20.30
2021,08,12,06,29,20.30
2021,08,12,06,30,20.20
2021,08,12,06,31,20.20
2021,08,12,06,32,20.20
2021,08,12,06,33,20.20
2021,08,12,06,34,20.20
2021,08,12,06,35,20.20
2021,08,12,06,36,20.20
2021,08,12,06,37,20.20
2021,08,12,06,38,20.20
2021,08,12,06,39,20.20
2021,08,12,06,40,20.20
2021,08,12,06,41,20.20
2021,08,12,06,42,20.20
2021,08,12,06,43,20.20
2021,08,12,06,44,20.20
2021,08,12,06,45,20.20
2021,08,12,06,46,20.20
2021,08,12,06,47,20.10
2021,08,12,06,48,20.10
2021,08,12,06,49,20.10
2021,08,12,06,50,20.10
2021,08,12,06,51,20.10
2021,08,12,06,52,20.10
2021,08,12,06,53,20.00
2021,08,12,06,54,20.00
2021,08,12,06,55,20.00
2021,08,12,06,56,20.00
2021,08,12,06,57,20.00
2021,08,12,06,58,19.90
2021,08,12,06,59,19.90
2021,08,12,07,00,19.90
2021,08,12,07,01,19.90
2021,08,12,07,02,19.90
2021,08,12,07,03,19.90
2021,08,12,07,04,19.90
2021,08,12,07,05,19.90
2021,08,12,07,06,19.90
2021,08,12,07,07,19.90
2021,08,12,07,08,19.90
2021,08,12,07,09,19.90
2021,08,12,07,10,19.90
2021,08,12,07,11,19.90
2021,08,12,07,12,19.90
2021,08,12,07,13,19.80
2021,08,12,07,14,19.80
2021,08,12,07,15,19.80
2021,08,12,07,16,19.80
2021,08,12,07,17,19.80
2021,08,12,07,18,19.80
2021,08,12,07,19,19.80
2021,08,12,07,20,19.90
2021,08,12,07,21,19.90
2021,08,12,07,22,20.00
2021,08,12,07,23,20.00
2021,08,12,07,24,20.10
2021,08,12,07,25,20.10
2021,08,12,07,26,20.20
2021,08,12,07,27,20.20
2021,08,12,07,28,20.20
2021,08,12,07,29,20.30
2021,08,12,07,30,20.30
2021,08,12,07,31,20.30
2021,08,12,07,32,20.40
2021,08,12,07,33,20.40
2021,08,12,07,34,20.40
2021,08,12,07,35,20.40
2021,08,12,07,36,20.50
2021,08,12,07,37,20.50
2021,08,12,07,38,20.60
2021,08,12,07,39,20.60
2021,08,12,07,40,20.60
2021,08,12,07,41,20.60
2021,08,12,07,42,20.60
2021,08,12,07,43,20.60
2021,08,12,07,44,20.60
2021,08,12,07,45,20.60
2021,08,12,07,46,20.60
2021,08,12,07,47,20.60
2021,08,12,07,48,20.60
2021,08,12,07,49,20.60
2021,08,12,07,50,20.60
2021,08,12,07,51,20.70
2021,08,12,07,52,20.70
2021,08,12,07,53,20.70
2021,08,12,07,54,20.70
2021,08,12,07,55,20.70
2021,08,12,07,56,20.70
2021,08,12,07,57,20.70
2021,08,12,07,58,20.70
2021,08,12,07,59,20.80
2021,08,12,08,00,20.80
2021,08,12,08,01,20.80
2021,08,12,08,02,20.80
2021,08,12,08,03,20.80
2021,08,12,08,04,20.80
2021,08,12,08,05,20.90
2021,08,12,08,06,20.90
2021,08,12,08,07,20.90
2021,08,12,08,08,20.90
2021,08,12,08,09,20.90
2021,08,12,08,10,21.00
2021,08,12,08,11,21.00
2021,08,12,08,12,21.00
2021,08,12,08,13,21.00
2021,08,12,08,14,21.00
2021,08,12,08,15,21.10
2021,08,12,08,16,21.10
2021,08,12,08,17,21.10
2021,08,12,08,18,21.10
2021,08,12,08,19,21.10
2021,08,12,08,20,21.10
2021,08,12,08,21,21.10
2021,08,12,08,22,21.10
2021,08,12,08,23,21.10
2021,08,12,08,24,21.20
2021,08,12,08,25,21.20
2021,08,12,08,26,21.20
2021,08,12,08,27,21.20
2021,08,12,08,28,21.20
2021,08,12,08,29,21.20
2021,08,12,08,30,21.20
2021,08,12,08,31,21.20
2021,08,12,08,32,21.20
2021,08,12,08,33,21.20
2021,08,12,08,34,21.20
2021,08,12,08,35,21.20
2021,08,12,08,36,21.20
2021,08,12,08,37,21.20
2021,08,12,08,38,21.20
2021,08,12,08,39,21.30
2021,08,12,08,40,21.30
2021,08,12,08,41,21.30
2021,08,12,08,42,21.30
2021,08,12,08,43,21.30
2021,08,12,08,44,21.30
2021,08,12,08,45,21.30
2021,08,12,08,46,21.30
2021,08,12,08,47,21.30
2021,08,12,08,48,21.30
2021,08,12,08,49,21.30
2021,08,12,08,50,21.30
2021,08,12,08,51,21.30
2021,08,12,08,52,21.30
2021,08,12,08,53,21.30
2021,08,12,08,54,21.40
2021,08,12,08,55,21.40
2021,08,12,08,56,21.50
2021,08,12,08,57,21.50
2021,08,12,08,58,21.60
2021,08,12,08,59,21.60
2021,08,12,09,00,21.60
2021,08,12,09,01,21.70
2021,08,12,09,02,21.70
2021,08,12,09,03,21.70
2021,08,12,09,04,21.70
2021,08,12,09,05,21.80
2021,08,12,09,06,21.80
2021,08,12,09,07,21.80
2021,08,12,09,08,21.80
2021,08,12,09,09,21.80
2021,08,12,09,10,21.80
2021,08,12,09,11,21.80
2021,08,12,09,12,21.80
2021,08,12,09,13,21.80
2021,08,12,09,14,21.80
2021,08,12,09,15,21.80
2021,08,12,09,16,21.80
2021,08,12,09,17,21.80
2021,08,12,09,18,21.80
2021,08,12,09,19,21.80
2021,08,12,09,20,21.80
2021,08,12,09,21,21.80
2021,08,12,09,22,21.80
2021,08,12,09,23,21.90
2021,08,12,09,24,22.00
2021,08,12,09,25,22.10
2021,08,12,09,26,22.10
2021,08,12,09,27,22.20
2021,08,12,09,28,22.20
2021,08,12,09,29,22.20
2021,08,12,09,30,22.20
2021,08,12,09,31,22.20
2021,08,12,09,32,22.20
2021,08,12,09,33,22.20
2021,08,12,09,34,22.20
2021,08,12,09,35,22.10
2021,08,12,09,36,22.10
2021,08,12,09,37,22.20
2021,08,12,09,38,22.20
2021,08,12,09,39,22.20
2021,08,12,09,40,22.30
2021,08,12,09,41,22.40
2021,08,12,09,42,22.40
2021,08,12,09,43,22.40
2021,08,12,09,44,22.40
2021,08,12,09,45,22.50
2021,08,12,09,46,22.50
2021,08,12,09,47,22.50
2021,08,12,09,48,22.60
2021,08,12,09,49,22.70
2021,08,12,09,50,22.80
2021,08,12,09,51,22.80
2021,08,12,09,52,22.80
2021,08,12,09,53,22.70
2021,08,12,09,54,22.70
2021,08,12,09,55,22.70
2021,08,12,09,56,22.60
2021,08,12,09,57,22.50
2021,08,12,09,58,22.30
2021,08,12,09,59,22.10
2021,08,12,10,00,22.00
2021,08,12,10,01,22.00
2021,08,12,10,02,22.00
2021,08,12,10,03,22.10
2021,08,12,10,04,22.20
2021,08,12,10,05,22.30
2021,08,12,10,06,22.30
2021,08,12,10,07,22.40
2021,08,12,10,08,22.50
2021,08,12,10,09,22.50
2021,08,12,10,10,22.50
2021,08,12,10,11,22.60
2021,08,12,10,12,22.60
2021,08,12,10,13,22.70
2021,08,12,10,14,22.80
2021,08,12,10,15,22.90
2021,08,12,10,16,23.00
2021,08,12,10,17,23.10
2021,08,12,10,18,23.10
2021,08,12,10,19,23.20
2021,08,12,10,20,23.30
2021,08,12,10,21,23.40
2021,08,12,10,22,23.40
2021,08,12,10,23,23.40
2021,08,12,10,24,23.40
2021,08,12,10,25,23.40
2021,08,12,10,26,23.40
2021,08,12,10,27,23.40
2021,08,12,10,28,23.30
2021,08,12,10,29,23.30
2021,08,12,10,30,23.30
2021,08,12,10,31,23.30
2021,08,12,10,32,23.30
2021,08,12,10,33,23.30
2021,08,12,10,34,23.20
2021,08,12,10,35,23.20
2021,08,12,10,36,23.20
2021,08,12,10,37,23.20
2021,08,12,10,38,23.20
2021,08,12,10,39,23.20
2021,08,12,10,40,23.30
2021,08,12,10,41,23.40
2021,08,12,10,42,23.50
2021,08,12,10,43,23.50
2021,08,12,10,44,23.50
2021,08,12,10,45,23.40
2021,08,12,10,46,23.40
2021,08,12,10,47,23.40
2021,08,12,10,48,23.50
2021,08,12,10,49,23.50
2021,08,12,10,50,23.60
2021,08,12,10,51,23.70
2021,08,12,10,52,23.80
2021,08,12,10,53,24.00
2021,08,12,10,54,24.10
2021,08,12,10,55,24.20
2021,08,12,10,56,24.20
2021,08,12,10,57,24.10
2021,08,12,10,58,24.00
2021,08,12,10,59,24.00
2021,08,12,11,00,23.80
2021,08,12,11,01,23.80
2021,08,12,11,02,23.80
2021,08,12,11,03,23.80
2021,08,12,11,04,23.70
2021,08,12,11,05,23.70
2021,08,12,11,06,23.80
2021,08,12,11,07,23.90
2021,08,12,11,08,23.90
2021,08,12,11,09,24.00
2021,08,12,11,10,24.10
2021,08,12,11,11,24.10
2021,08,12,11,12,24.10
2021,08,12,11,13,24.00
2021,08,12,11,14,24.00
2021,08,12,11,15,24.00
2021,08,12,11,16,23.90
2021,08,12,11,17,23.90
2021,08,12,11,18,23.90
2021,08,12,11,19,23.80
2021,08,12,11,20,23.80
2021,08,12,11,21,23.80
2021,08,12,11,22,23.80
2021,08,12,11,23,23.80
2021,08,12,11,24,23.80
2021,08,12,11,25,23.80
2021,08,12,11,26,23.90
2021,08,12,11,27,23.90
2021,08,12,11,28,24.00
2021,08,12,11,29,24.10
2021,08,12,11,30,24.20
2021,08,12,11,31,24.30
2021,08,12,11,32,24.40
2021,08,12,11,33,24.50
2021,08,12,11,34,24.50
2021,08,12,11,35,24.60
2021,08,12,11,36,24.60
2021,08,12,11,37,24.60
2021,08,12,11,38,24.70
2021,08,12,11,39,24.70
2021,08,12,11,40,24.60
2021,08,12,11,41,24.60
2021,08,12,11,42,24.70
2021,08,12,11,43,24.70
2021,08,12,11,44,24.60
2021,08,12,11,45,24.60
2021,08,12,11,46,24.60
2021,08,12,11,47,24.60
2021,08,12,11,48,24.60
2021,08,12,11,49,24.50
2021,08,12,11,50,24.40
2021,08,12,11,51,24.40
2021,08,12,11,52,24.40
2021,08,12,11,53,24.30
2021,08,12,11,54,24.30
2021,08,12,11,55,24.30
2021,08,12,11,56,24.30
2021,08,12,11,57,24.30
2021,08,12,11,58,24.30
2021,08,12,11,59,24.30
2021,08,12,12,00,24.40
2021,08,12,12,01,24.50
2021,08,12,12,02,24.40
2021,08,12,12,03,24.40
2021,08,12,12,04,24.50
2021,08,12,12,05,24.60
2021,08,12,12,06,24.70
2021,08,12,12,07,24.80
2021,08,12,12,08,24.80
2021,08,12,12,09,24.90
2021,08,12,12,10,25.00
2021,08,12,12,11,25.00
2021,08,12,12,12,25.10
2021,08,12,12,13,25.20
2021,08,12,12,14,25.30
2021,08,12,12,15,25.40
2021,08,12,12,16,25.50
2021,08,12,12,17,25.50
2021,08,12,12,18,25.50
2021,08,12,12,19,25.30
2021,08,12,12,20,25.20
2021,08,12,12,21,25.20
2021,08,12,12,22,25.10
2021,08,12,12,23,25.10
2021,08,12,12,24,25.00
2021,08,12,12,25,25.00
2021,08,12,12,26,25.00
2021,08,12,12,27,25.10
2021,08,12,12,28,25.20
2021,08,12,12,29,25.40
2021,08,12,12,30,25.50
2021,08,12,12,31,25.60
2021,08,12,12,32,25.70
2021,08,12,12,33,25.70
2021,08,12,12,34,25.80
2021,08,12,12,35,25.80
2021,08,12,12,36,25.90
2021,08,12,12,37,25.90
2021,08,12,12,38,25.90
2021,08,12,12,39,25.90
2021,08,12,12,40,25.80
2021,08,12,12,41,25.80
2021,08,12,12,42,25.90
2021,08,12,12,43,25.90
2021,08,12,12,44,25.80
2021,08,12,12,45,25.80
2021,08,12,12,46,25.80
2021,08,12,12,47,25.80
2021,08,12,12,48,25.80
2021,08,12,12,49,25.80
2021,08,12,12,50,25.90
2021,08,12,12,51,26.00
2021,08,12,12,52,26.20
2021,08,12,12,53,26.20
2021,08,12,12,54,26.20
2021,08,12,12,55,26.20
2021,08,12,12,56,26.20
2021,08,12,12,57,26.40
2021,08,12,12,58,26.50
2021,08,12,12,59,26.60
2021,08,12,13,00,26.70
2021,08,12,13,01,26.80
2021,08,12,13,02,26.80
2021,08,12,13,03,26.80
2021,08,12,13,04,26.80
2021,08,12,13,05,26.80
2021,08,12,13,06,26.80
2021,08,12,13,07,26.80
2021,08,12,13,08,26.90
2021,08,12,13,09,27.00
2021,08,12,13,10,27.00
2021,08,12,13,11,27.00
2021,08,12,13,12,27.10
2021,08,12,13,13,27.10
2021,08,12,13,14,27.20
2021,08,12,13,15,27.20
2021,08,12,13,16,27.30
2021,08,12,13,17,27.40
2021,08,12,13,18,27.40
2021,08,12,13,19,27.40
2021,08,12,13,20,27.20
2021,08,12,13,21,27.00
2021,08,12,13,22,26.90
2021,08,12,13,23,26.90
2021,08,12,13,24,27.00
2021,08,12,13,25,27.10
2021,08,12,13,26,27.20
2021,08,12,13,27,27.10
2021,08,12,13,28,27.10
2021,08,12,13,29,27.10
2021,08,12,13,30,27.20
2021,08,12,13,31,27.30
2021,08,12,13,32,27.30
2021,08,12,13,33,27.20
2021,08,12,13,34,27.30
2021,08,12,13,35,27.30
2021,08,12,13,36,27.40
2021,08,12,13,37,27.50
2021,08,12,13,38,27.60
2021,08,12,13,39,27.60
2021,08,12,13,40,27.50
2021,08,12,13,41,27.40
2021,08,12,13,42,27.30
2021,08,12,13,43,27.30
2021,08,12,13,44,27.30
2021,08,12,13,45,27.30
2021,08,12,13,46,27.30
2021,08,12,13,47,27.20
2021,08,12,13,48,27.20
2021,08,12,13,49,27.20
2021,08,12,13,50,27.20
2021,08,12,13,51,27.20
2021,08,12,13,52,27.30
2021,08,12,13,53,27.20
2021,08,12,13,54,27.20
2021,08,12,13,55,27.20
2021,08,12,13,56,27.10
2021,08,12,13,57,26.80
2021,08,12,13,58,26.70
2021,08,12,13,59,26.60
2021,08,12,14,00,26.60
2021,08,12,14,01,26.60
2021,08,12,14,02,26.60
2021,08,12,14,03,26.60
2021,08,12,14,04,26.60
2021,08,12,14,05,26.60
2021,08,12,14,06,26.60
2021,08,12,14,07,26.60
2021,08,12,14,08,26.60
2021,08,12,14,09,26.60
2021,08,12,14,10,26.60
2021,08,12,14,11,26.60
2021,08,12,14,12,26.60
2021,08,12,14,13,26.70
2021,08,12,14,14,26.80
2021,08,12,14,15,26.90
2021,08,12,14,16,26.90
2021,08,12,14,17,26.90
2021,08,12,14,18,26.90
2021,08,12,14,19,27.00
2021,08,12,14,20,27.10
2021,08,12,14,21,27.20
2021,08,12,14,22,27.30
2021,08,12,14,23,27.40
2021,08,12,14,24,27.40
2021,08,12,14,25,27.40
2021,08,12,14,26,27.40
2021,08,12,14,27,27.50
2021,08,12,14,28,27.60
2021,08,12,14,29,27.70
2021,08,12,14,30,27.80
2021,08,12,14,31,27.80
2021,08,12,14,32,27.80
2021,08,12,14,33,28.00
2021,08,12,14,34,28.10
2021,08,12,14,51,29.00
2021,08,12,14,52,29.00
2021,08,12,14,53,29.00
2021,08,12,14,54,29.10
2021,08,12,14,55,29.10
2021,08,12,14,56,29.20
2021,08,12,14,57,29.20
2021,08,12,14,58,29.20
2021,08,12,14,59,29.20
2021,08,12,15,00,29.20
2021,08,12,15,01,29.20
2021,08,12,15,02,29.30
2021,08,12,15,03,29.30
2021,08,12,15,04,29.30
2021,08,12,15,05,29.20
2021,08,12,15,06,29.20
2021,08,12,15,07,29.20
2021,08,12,15,08,29.10
2021,08,12,15,09,29.10
2021,08,12,15,10,29.00
2021,08,12,15,11,28.90
2021,08,12,15,12,28.90
2021,08,12,15,13,28.80
2021,08,12,15,14,28.80
2021,08,12,15,15,28.60
2021,08,12,15,16,28.50
2021,08,12,15,17,28.40
2021,08,12,15,18,28.30
2021,08,12,15,19,28.30
2021,08,12,15,20,28.30
2021,08,12,15,21,28.40
2021,08,12,15,22,28.50
2021,08,12,15,23,28.60
2021,08,12,15,24,28.60
2021,08,12,15,25,28.70
2021,08,12,15,26,28.80
2021,08,12,15,27,28.90
2021,08,12,15,28,29.10
2021,08,12,15,29,29.10
2021,08,12,15,30,29.10
2021,08,12,15,31,29.10
2021,08,12,15,32,29.10
2021,08,12,15,33,29.00
2021,08,12,15,34,29.00
2021,08,12,15,35,29.10
2021,08,12,15,36,29.10
2021,08,12,15,37,29.20
2021,08,12,15,38,29.10
2021,08,12,15,39,29.20
2021,08,12,15,40,29.20
2021,08,12,15,41,29.20
2021,08,12,15,42,29.20
2021,08,12,15,43,29.20
2021,08,12,15,44,29.20
2021,08,12,15,45,29.30
2021,08,12,15,46,29.30
2021,08,12,15,47,29.40
2021,08,12,15,48,29.50
2021,08,12,15,49,29.60
2021,08,12,15,50,29.60
2021,08,12,15,51,29.70
2021,08,12,15,52,29.70
2021,08,12,15,53,29.70
2021,08,12,15,54,29.80
2021,08,12,15,55,29.80
2021,08,12,15,56,29.80
2021,08,12,15,57,29.80
2021,08,12,15,58,29.90
2021,08,12,15,59,29.90
2021,08,12,16,00,30.00
2021,08,12,16,01,30.10
2021,08,12,16,02,30.20
2021,08,12,16,03,30.30
2021,08,12,16,04,30.40
2021,08,12,16,05,30.50
2021,08,12,16,06,30.60
2021,08,12,16,07,30.60
2021,08,12,16,08,30.70
2021,08,12,16,09,30.70
2021,08,12,16,10,30.80
2021,08,12,16,11,30.80
2021,08,12,16,12,30.90
2021,08,12,16,13,31.10
2021,08,12,16,14,31.20
2021,08,12,16,15,31.20
2021,08,12,16,16,31.30
2021,08,12,16,17,31.40
2021,08,12,16,18,31.40
2021,08,12,16,19,31.40
2021,08,12,16,20,31.40
2021,08,12,16,21,31.30
2021,08,12,16,22,31.20
2021,08,12,16,23,31.20
2021,08,12,16,24,31.10
2021,08,12,16,25,30.90
2021,08,12,16,26,30.70
2021,08,12,16,27,30.50
2021,08,12,16,28,30.30
2021,08,12,16,29,30.30
2021,08,12,16,30,30.30
2021,08,12,16,31,30.30
2021,08,12,16,32,30.30
2021,08,12,16,33,30.40
2021,08,12,16,34,30.40
2021,08,12,16,35,30.40
2021,08,12,16,36,30.40
2021,08,12,16,37,30.40
2021,08,12,16,38,30.40
2021,08,12,16,39,30.50
2021,08,12,16,40,30.50
2021,08,12,16,41,30.50
2021,08,12,16,42,30.50
2021,08,12,16,43,30.50
2021,08,12,16,44,30.60
2021,08,12,16,45,30.60
2021,08,12,16,46,30.60
2021,08,12,16,47,30.70
2021,08,12,16,48,30.80
2021,08,12,16,49,30.80
2021,08,12,16,50,30.90
2021,08,12,16,51,31.00
2021,08,12,16,52,31.00
2021,08,12,16,53,31.00
2021,08,12,16,54,31.00
2021,08,12,16,55,31.00
2021,08,12,16,56,31.00
2021,08,12,16,57,31.10
2021,08,12,16,58,31.00
2021,08,12,16,59,31.00
2021,08,12,17,00,31.00
2021,08,12,17,01,31.00
2021,08,12,17,02,31.00
2021,08,12,17,03,31.00
2021,08,12,17,04,30.90
2021,08,12,17,05,30.90
2021,08,12,17,06,30.90
2021,08,12,17,07,30.80
2021,08,12,17,08,30.70
2021,08,12,17,09,30.70
2021,08,12,17,10,30.80
2021,08,12,17,11,30.80
2021,08,12,17,12,30.70
2021,08,12,17,13,30.60
2021,08,12,17,14,30.60
2021,08,12,17,15,30.50
2021,08,12,17,16,30.30
2021,08,12,17,17,30.30
2021,08,12,17,18,30.20
2021,08,12,17,19,30.10
2021,08,12,17,20,30.10
2021,08,12,17,21,30.10
2021,08,12,17,22,30.20
2021,08,12,17,23,30.20
2021,08,12,17,24,30.20
2021,08,12,17,25,30.30
2021,08,12,17,26,30.30
2021,08,12,17,27,30.40
2021,08,12,17,28,30.50
2021,08,12,17,29,30.50
2021,08,12,17,30,30.50
2021,08,12,17,31,30.40
2021,08,12,17,32,30.30
2021,08,12,17,33,30.20
2021,08,12,17,34,30.30
2021,08,12,17,35,30.30